Simultaneous Nadir Overpasses (SNOs) Predictions

Prediction of SNOs between LANDSAT-8 and METOP-A Satellite Orbit:

Table of predicted SNOs for the next 14.0 days since TLE Epoch: 3/28/2020
Index Date (LANDSAT-8) Time (LANDSAT-8) Lat,Lon (LANDSAT-8) SZA (LANDSAT-8 ) Date (METOP-A) Time (METOP-A) Lat,Lon (METOP-A) SZA (METOP-A ) Distance(km) Time Diff (sec)
1 03/29/2020 14:55:50 81.48, 1.95 80.23 03/29/2020 14:54:47 81.49, 2.06 80.22 1.94 63
2 03/29/2020 15:45:17 -81.48, 169.51 99.80 03/29/2020 15:45:27 -81.49, 169.62 99.77 2.11 10
3 04/01/2020 10:30:03 81.49, 68.55 79.19 04/01/2020 10:29:09 81.49, 68.72 79.19 2.90 54
4 04/01/2020 11:19:30 -81.49,-123.87 100.83 04/01/2020 11:19:49 -81.48,-123.68 100.81 3.04 19
5 04/04/2020 06:04:16 81.50, 135.11 78.16 04/04/2020 06:03:32 81.49, 134.97 78.12 2.50 44
6 04/04/2020 06:53:43 -81.49, -57.27 101.86 04/04/2020 06:54:12 -81.48, -57.40 101.87 2.43 29
7 04/07/2020 01:38:30 81.48,-158.75 77.08 04/07/2020 01:37:55 81.49,-158.79 77.07 0.99 35
8 04/07/2020 02:27:57 -81.48, 8.90 102.94 04/07/2020 02:28:35 -81.48, 8.87 102.92 0.45 38
9 04/09/2020 21:12:42 81.48, -92.25 76.07 04/09/2020 21:12:16 81.49, -92.17 76.07 1.46 26




NCC Satellite Simultaneous Nadir Overpasses (SNOs) Prediction Service
